Location: Moena
(46.3667°N, 11.6500°E)
Time: 13:48:36
(UTC+00:00)

Cosmos 2333 Rocket - Pass Details

Date: 20 June 2021
Orbit: 841 x 861 km, 70.8° (Epoch: 26 July)

Event Time Altitude Azimuth Distance (km) Brightness Sun altitude
Rises 20:16:13 0° 189° (S) 3,421 5.0 -9.3°
Reaches altitude 10° 20:18:43 10° 185° (S) 2,487 4.2 -9.6°
Maximum altitude 20:24:15 53° 110° (ESE) 1,048 2.4 -10.2°
Drops below altitude 10° 20:29:48 10° 35° (NE) 2,492 4.9 -10.8°
Sets 20:32:18 0° 31° (NNE) 3,429 5.7 -11.1°
